Printer-friendly version

IAU Minor Planet Center

Minor Planet Center

MPEC 2005-L10 : 2005 LW

The following Minor Planet Electronic Circular may be linked-to from your own Web pages, but must not otherwise be redistributed electronically.


Read MPEC 2005-L09 Read MPEC 2005-L11


M.P.E.C. 2005-L10                                Issued 2005 June 3, 18:05 UT

     The Minor Planet Electronic Circulars contain information on unusual
         minor planets and routine data on comets.  They are published
   on behalf of Commission 20 of the International Astronomical Union by the
          Minor Planet Center, Smithsonian Astrophysical Observatory,
                          Cambridge, MA 02138, U.S.A.

                  Supported in part by the Brinson Foundation
             Prepared using the Tamkin Foundation Computer Network

                              MPC@CFA.HARVARD.EDU
          URL http://cfa-www.harvard.edu/iau/mpc.html  ISSN 1523-6714

                                    2005 LW

Observations:
     K05L00W* C2005 06 02.17378 12 57 13.76 +12 54 19.6          18.2   EL010704
     K05L00W  C2005 06 02.18432 12 57 19.61 +12 53 08.8          18.4   EL010704
     K05L00W  C2005 06 02.19487 12 57 25.41 +12 51 59.5          18.6   EL010704
     K05L00W  C2005 06 02.89005 13 03 45.45 +11 37 16.2          18.3 V EL010A50
     K05L00W  C2005 06 02.89082 13 03 45.86 +11 37 11.2          18.1 V EL010A50
     K05L00W  C2005 06 02.89159 13 03 46.25 +11 37 06.4          18.2 V EL010A50
     K05L00W  C2005 06 02.89465 13 03 47.77 +11 36 47.9          18.6 V EL010A50
     K05L00W  C2005 06 02.89772 13 03 49.41 +11 36 28.3          18.1 V EL010A50
     K05L00W  C2005 06 03.21649 13 06 35.52 +11 03 54.0          18.1 R EL010683
     K05L00W  C2005 06 03.23135 13 06 42.79 +11 02 24.0          17.1 R EL010683
     K05L00W  C2005 06 03.24622 13 06 50.27 +11 00 52.3          17.7 R EL010683
     K05L00W  C2005 06 03.38848 13 08 01.06 +10 46 28.7          16.4 R EL010651
     K05L00W  C2005 06 03.38964 13 08 01.62 +10 46 20.9          16.4 R EL010651
     K05L00W  C2005 06 03.39079 13 08 02.21 +10 46 14.2          16.6 R EL010651
     K05L00W  C2005 06 03.44815 13 08 32.47 +10 41 26.4          17.5 R EL010474
     K05L00W  C2005 06 03.44919 13 08 33.05 +10 41 19.6          17.5 R EL010474
     K05L00W  C2005 06 03.45023 13 08 33.47 +10 41 13.1          17.5 R EL010474

Observer details:
474 Mount John Observatory, Lake Tekapo.  Observers A. C. Gilmore,
    P. M. Kilmartin.  Measurer P. M. Kilmartin.  1.0-m f/7.7 reflector + CCD.
651 Grasslands Observatory, Tucson.  Observer J. E. McGaha.  0.62-m f/5.1
    Newtonian reflector + CCD.
683 Goodricke-Pigott Observatory, Tucson.  Observer R. Tucker.  0.35-m f/11
    Schmidt-Cassegrain + CCD.
704 Lincoln Laboratory ETS, New Mexico.  Observers M. Blythe, F. Shelly,
    M. Bezpalko, R. Huber, L. Manguso, D. Torres, R. Kracke, M. McCleary,
    H. Stange, A. Milner.  Measurers J. Stuart, R. Sayer, J. Evans, J. Kommers.
    1.0-m f/2.15 reflector + CCD.
A50 Andrushivka Astronomical Observatory.  Observer O. Gerashchenko.  0.6-m
    f/2.0 reflector + CCD.

Orbital elements:
2005 LW                                                              PHA 0.005
Epoch 2005 May 30.0 TT = JDT 2453520.5                  MPC
M  32.14150              (2000.0)            P               Q
n   0.55635668     Peri.  355.17350     -0.68184547     -0.73057782
a   1.4640880      Node   137.80793     +0.67294755     -0.64612104
e   0.6383874      Incl.    3.12768     +0.28675487     -0.22087021
P   1.77           H   19.1           G   0.15
From 17 observations 2005 June 2-3.

Ephemeris:
2005 LW                  a,e,i = 1.46, 0.64, 3                   q = 0.5294
Date    TT    R. A. (2000) Decl.     Delta      r     Elong.  Phase     V
2005 05 30    12 21.41   +19 29.4    0.168    1.075   107.1    64.3    17.7
2005 06 09    13 44.76   +03 15.9    0.267    1.185   123.8    45.4    18.3
2005 06 19    14 22.30   -04 22.3    0.393    1.289   126.4    39.4    19.2
2005 06 29    14 45.86   -08 41.5    0.532    1.387   124.1    37.3    19.9
2005 07 09    15 04.21   -11 35.0    0.682    1.480   119.9    36.5    20.6
2005 07 19    15 20.52   -13 44.7    0.839    1.567   114.9    36.0    21.2
2005 07 29    15 36.04   -15 28.3    1.004    1.648   109.5    35.5    21.6

Timothy B. Spahr             (C) Copyright 2005 MPC           M.P.E.C. 2005-L10

Read MPEC 2005-L09 Read MPEC 2005-L11


Our Web policy. Index to the CBAT/MPC/ICQ pages.


Valid HTML 4.01!